Time,TemperatureF,DewpointF,PressureIn,WindDirection,WindDirectionDegrees,WindSpeedMPH,WindSpeedGustMPH,Humidity,HourlyPrecipIn,Conditions,Clouds,dailyrainin,SolarRadiationWatts/m^2,SoftwareType,DateUTC
2013-01-14 00:22:00,5.0,-2.0,-100.00,ENE,72,7.0,8.0,72,0.00,,,0.00,1.000000,,2013-01-14 08:22:00,
2013-01-14 00:32:00,5.0,-2.0,-100.00,ENE,72,7.0,8.0,72,0.00,,,0.00,1.000000,,2013-01-14 08:32:00,
2013-01-14 00:42:00,5.0,-2.0,-100.00,ENE,72,7.0,8.0,72,0.00,,,0.00,1.000000,,2013-01-14 08:42:00,
2013-01-14 00:52:00,5.0,-2.0,-100.00,ENE,72,7.0,8.0,72,0.00,,,0.00,1.000000,,2013-01-14 08:52:00,
2013-01-14 01:22:00,4.0,-2.0,-100.00,NE,54,4.0,8.0,75,0.00,,,0.00,1.000000,,2013-01-14 09:22:00,
2013-01-14 01:33:00,4.0,-2.0,-100.00,NE,54,4.0,8.0,75,0.00,,,0.00,1.000000,,2013-01-14 09:33:00,
2013-01-14 01:42:00,4.0,-2.0,-100.00,NE,54,4.0,8.0,75,0.00,,,0.00,1.000000,,2013-01-14 09:42:00,
2013-01-14 01:52:00,4.0,-2.0,-100.00,NE,54,4.0,8.0,75,0.00,,,0.00,1.000000,,2013-01-14 09:52:00,
2013-01-14 02:22:00,5.0,-2.0,-100.00,ENE,58,5.0,8.0,73,0.00,,,0.00,1.000000,,2013-01-14 10:22:00,
2013-01-14 02:32:00,5.0,-2.0,-100.00,ENE,58,5.0,8.0,73,0.00,,,0.00,1.000000,,2013-01-14 10:32:00,
2013-01-14 02:42:00,5.0,-2.0,-100.00,ENE,58,5.0,8.0,73,0.00,,,0.00,1.000000,,2013-01-14 10:42:00,
2013-01-14 02:52:00,5.0,-2.0,-100.00,ENE,58,5.0,8.0,73,0.00,,,0.00,1.000000,,2013-01-14 10:52:00,
2013-01-14 03:22:00,3.0,-3.0,-100.00,ENE,77,5.0,8.0,74,0.00,,,-99.99,1.000000,,2013-01-14 11:22:00,
2013-01-14 03:32:00,3.0,-3.0,-100.00,ENE,77,5.0,8.0,74,0.00,,,-99.99,1.000000,,2013-01-14 11:32:00,
2013-01-14 03:42:00,3.0,-3.0,-100.00,ENE,77,5.0,8.0,74,0.00,,,-99.99,1.000000,,2013-01-14 11:42:00,
2013-01-14 03:53:00,3.0,-3.0,-100.00,ENE,77,5.0,8.0,74,0.00,,,-99.99,1.000000,,2013-01-14 11:53:00,
2013-01-14 04:22:00,4.0,-2.0,-100.00,NE,56,8.0,10.0,74,0.00,,,0.00,1.000000,,2013-01-14 12:22:00,
2013-01-14 04:33:00,4.0,-2.0,-100.00,NE,56,8.0,10.0,74,0.00,,,0.00,1.000000,,2013-01-14 12:33:00,
2013-01-14 04:42:00,4.0,-2.0,-100.00,NE,56,8.0,10.0,74,0.00,,,0.00,1.000000,,2013-01-14 12:42:00,
2013-01-14 04:52:00,4.0,-2.0,-100.00,NE,56,8.0,10.0,74,0.00,,,0.00,1.000000,,2013-01-14 12:52:00,
2013-01-14 05:22:00,0.0,-6.0,-100.00,ENE,73,7.0,11.0,76,0.00,,,-99.99,1.000000,,2013-01-14 13:22:00,
2013-01-14 05:33:00,0.0,-6.0,-100.00,ENE,73,7.0,11.0,76,0.00,,,-99.99,1.000000,,2013-01-14 13:33:00,
2013-01-14 05:43:00,0.0,-6.0,-100.00,ENE,73,7.0,11.0,76,0.00,,,-99.99,1.000000,,2013-01-14 13:43:00,
2013-01-14 05:52:00,0.0,-6.0,-100.00,ENE,73,7.0,11.0,76,0.00,,,-99.99,1.000000,,2013-01-14 13:52:00,
2013-01-14 06:22:00,-1.0,-6.0,-100.00,ENE,75,6.0,10.0,77,0.00,,,0.00,1.000000,,2013-01-14 14:22:00,
2013-01-14 06:33:00,-1.0,-6.0,-100.00,ENE,75,6.0,10.0,77,0.00,,,0.00,1.000000,,2013-01-14 14:33:00,
2013-01-14 06:42:00,-1.0,-6.0,-100.00,ENE,75,6.0,10.0,77,0.00,,,0.00,1.000000,,2013-01-14 14:42:00,
2013-01-14 06:52:00,-1.0,-6.0,-100.00,ENE,75,6.0,10.0,77,0.00,,,0.00,1.000000,,2013-01-14 14:52:00,
2013-01-14 07:23:00,-1.0,-6.0,-100.00,East,87,5.0,9.0,79,0.00,,,0.00,1.000000,,2013-01-14 15:23:00,
2013-01-14 07:33:00,-1.0,-6.0,-100.00,East,87,5.0,9.0,79,0.00,,,0.00,1.000000,,2013-01-14 15:33:00,
2013-01-14 07:43:00,-1.0,-6.0,-100.00,East,87,5.0,9.0,79,0.00,,,0.00,1.000000,,2013-01-14 15:43:00,
2013-01-14 07:53:00,-1.0,-6.0,-100.00,East,87,5.0,9.0,79,0.00,,,0.00,1.000000,,2013-01-14 15:53:00,
2013-01-14 08:23:00,-1.0,-6.0,-100.00,ENE,72,7.0,10.0,77,0.00,,,0.00,7.000000,,2013-01-14 16:23:00,
2013-01-14 08:33:00,-1.0,-6.0,-100.00,ENE,72,7.0,10.0,77,0.00,,,0.00,7.000000,,2013-01-14 16:33:00,
2013-01-14 08:43:00,-1.0,-6.0,-100.00,ENE,72,7.0,10.0,77,0.00,,,0.00,7.000000,,2013-01-14 16:43:00,
2013-01-14 08:52:00,-1.0,-6.0,-100.00,ENE,72,7.0,10.0,77,0.00,,,0.00,7.000000,,2013-01-14 16:52:00,
2013-01-14 09:22:00,4.0,-4.0,-100.00,East,80,5.0,12.0,69,0.00,,,0.00,46.000000,,2013-01-14 17:22:00,
2013-01-14 09:33:00,4.0,-4.0,-100.00,East,80,5.0,12.0,69,0.00,,,0.00,46.000000,,2013-01-14 17:33:00,
2013-01-14 09:43:00,4.0,-4.0,-100.00,East,80,5.0,12.0,69,0.00,,,0.00,46.000000,,2013-01-14 17:43:00,
2013-01-14 09:53:00,4.0,-4.0,-100.00,East,80,5.0,12.0,69,0.00,,,0.00,46.000000,,2013-01-14 17:53:00,
2013-01-14 10:22:00,11.0,0.0,-100.00,ENE,63,4.0,9.0,60,0.00,,,0.00,146.000000,,2013-01-14 18:22:00,
2013-01-14 10:33:00,11.0,0.0,-100.00,ENE,63,4.0,9.0,60,0.00,,,0.00,146.000000,,2013-01-14 18:33:00,
2013-01-14 10:42:00,11.0,0.0,-100.00,ENE,63,4.0,9.0,60,0.00,,,0.00,146.000000,,2013-01-14 18:42:00,
2013-01-14 10:52:00,11.0,0.0,-100.00,ENE,63,4.0,9.0,60,0.00,,,0.00,146.000000,,2013-01-14 18:52:00,
2013-01-14 11:22:00,21.0,3.0,-100.00,West,260,2.0,4.0,45,0.00,,,0.00,74.000000,,2013-01-14 19:22:00,
2013-01-14 11:33:00,21.0,3.0,-100.00,West,260,2.0,4.0,45,0.00,,,0.00,74.000000,,2013-01-14 19:33:00,
2013-01-14 11:42:00,21.0,3.0,-100.00,West,260,2.0,4.0,45,0.00,,,0.00,74.000000,,2013-01-14 19:42:00,
2013-01-14 11:52:00,21.0,3.0,-100.00,West,260,2.0,4.0,45,0.00,,,0.00,74.000000,,2013-01-14 19:52:00,
2013-01-14 12:22:00,24.0,7.0,-100.00,SW,236,3.0,6.0,47,0.00,,,0.00,444.000000,,2013-01-14 20:22:00,
2013-01-14 12:33:00,24.0,7.0,-100.00,SW,236,3.0,6.0,47,0.00,,,0.00,444.000000,,2013-01-14 20:33:00,
2013-01-14 12:42:00,24.0,7.0,-100.00,SW,236,3.0,6.0,47,0.00,,,0.00,444.000000,,2013-01-14 20:42:00,
2013-01-14 12:52:00,24.0,7.0,-100.00,SW,236,3.0,6.0,47,0.00,,,0.00,444.000000,,2013-01-14 20:52:00,
2013-01-14 13:22:00,25.0,7.0,-100.00,WSW,248,4.0,7.0,46,0.00,,,0.00,476.000000,,2013-01-14 21:22:00,
2013-01-14 13:33:00,25.0,7.0,-100.00,WSW,248,4.0,7.0,46,0.00,,,0.00,476.000000,,2013-01-14 21:33:00,
2013-01-14 13:42:00,25.0,7.0,-100.00,WSW,248,4.0,7.0,46,0.00,,,0.00,476.000000,,2013-01-14 21:42:00,
2013-01-14 13:53:00,25.0,7.0,-100.00,WSW,248,4.0,7.0,46,0.00,,,0.00,476.000000,,2013-01-14 21:53:00,
2013-01-14 14:23:00,27.0,6.0,-100.00,SW,221,4.0,7.0,41,0.00,,,0.00,444.000000,,2013-01-14 22:23:00,
2013-01-14 14:32:00,27.0,6.0,-100.00,SW,221,4.0,7.0,41,0.00,,,0.00,444.000000,,2013-01-14 22:32:00,
2013-01-14 14:42:00,27.0,6.0,-100.00,SW,221,4.0,7.0,41,0.00,,,0.00,444.000000,,2013-01-14 22:42:00,
2013-01-14 14:52:00,27.0,6.0,-100.00,SW,221,4.0,7.0,41,0.00,,,0.00,444.000000,,2013-01-14 22:52:00,
2013-01-14 15:23:00,25.0,8.0,-100.00,WSW,253,5.0,8.0,47,0.00,,,0.00,356.000000,,2013-01-14 23:23:00,
2013-01-14 15:33:00,25.0,8.0,-100.00,WSW,253,5.0,8.0,47,0.00,,,0.00,356.000000,,2013-01-14 23:33:00,
2013-01-14 15:42:00,25.0,8.0,-100.00,WSW,253,5.0,8.0,47,0.00,,,0.00,356.000000,,2013-01-14 23:42:00,
2013-01-14 15:52:00,25.0,8.0,-100.00,WSW,253,5.0,8.0,47,0.00,,,0.00,356.000000,,2013-01-14 23:52:00,
2013-01-14 16:22:00,23.0,7.0,-100.00,WSW,250,5.0,8.0,49,0.00,,,0.00,223.000000,,2013-01-15 00:22:00,
2013-01-14 16:32:00,23.0,7.0,-100.00,WSW,250,5.0,8.0,49,0.00,,,0.00,223.000000,,2013-01-15 00:32:00,
2013-01-14 16:43:00,23.0,7.0,-100.00,WSW,250,5.0,8.0,49,0.00,,,0.00,223.000000,,2013-01-15 00:43:00,
2013-01-14 16:52:00,23.0,7.0,-100.00,WSW,250,5.0,8.0,49,0.00,,,0.00,223.000000,,2013-01-15 00:52:00,
2013-01-14 17:22:00,20.0,6.0,-100.00,SW,230,3.0,6.0,54,0.00,,,0.00,72.000000,,2013-01-15 01:22:00,
2013-01-14 17:32:00,20.0,6.0,-100.00,SW,230,3.0,6.0,54,0.00,,,0.00,72.000000,,2013-01-15 01:32:00,
2013-01-14 18:22:00,18.0,8.0,-100.00,SSW,202,3.0,5.0,63,0.00,,,0.00,2.000000,,2013-01-15 02:22:00,
2013-01-14 18:32:00,18.0,8.0,-100.00,SSW,202,3.0,5.0,63,0.00,,,0.00,2.000000,,2013-01-15 02:32:00,
2013-01-14 18:42:00,18.0,8.0,-100.00,SSW,202,3.0,5.0,63,0.00,,,0.00,2.000000,,2013-01-15 02:42:00,
2013-01-14 18:52:00,18.0,8.0,-100.00,SSW,202,3.0,5.0,63,0.00,,,0.00,2.000000,,2013-01-15 02:52:00,
2013-01-14 19:22:00,18.0,8.0,-100.00,SSE,167,3.0,5.0,64,0.00,,,0.00,1.000000,,2013-01-15 03:22:00,
2013-01-14 19:33:00,18.0,8.0,-100.00,SSE,167,3.0,5.0,64,0.00,,,0.00,1.000000,,2013-01-15 03:33:00,
2013-01-14 19:42:00,18.0,8.0,-100.00,SSE,167,3.0,5.0,64,0.00,,,0.00,1.000000,,2013-01-15 03:42:00,
2013-01-14 19:52:00,18.0,8.0,-100.00,SSE,167,3.0,5.0,64,0.00,,,0.00,1.000000,,2013-01-15 03:52:00,
2013-01-14 21:22:00,15.0,8.0,-100.00,East,96,1.0,6.0,72,-99.99,,,0.00,1.000000,,2013-01-15 05:22:00,
2013-01-14 21:33:00,15.0,8.0,-100.00,East,96,1.0,6.0,72,-99.99,,,0.00,1.000000,,2013-01-15 05:33:00,
2013-01-14 21:42:00,15.0,8.0,-100.00,East,96,1.0,6.0,72,-99.99,,,0.00,1.000000,,2013-01-15 05:42:00,
2013-01-14 21:52:00,15.0,8.0,-100.00,East,96,1.0,6.0,72,-99.99,,,0.00,1.000000,,2013-01-15 05:52:00,
2013-01-14 22:22:00,15.0,7.0,-100.00,SSW,207,2.0,4.0,71,0.00,,,0.00,1.000000,,2013-01-15 06:22:00,
2013-01-14 22:32:00,15.0,7.0,-100.00,SSW,207,2.0,4.0,71,0.00,,,0.00,1.000000,,2013-01-15 06:32:00,
2013-01-14 22:42:00,15.0,7.0,-100.00,SSW,207,2.0,4.0,71,0.00,,,0.00,1.000000,,2013-01-15 06:42:00,
2013-01-14 22:52:00,15.0,7.0,-100.00,SSW,207,2.0,4.0,71,0.00,,,0.00,1.000000,,2013-01-15 06:52:00,
2013-01-14 23:22:00,14.0,8.0,-100.00,West,269,2.0,4.0,75,0.00,,,0.00,1.000000,,2013-01-15 07:22:00,
2013-01-14 23:32:00,14.0,8.0,-100.00,West,269,2.0,4.0,75,0.00,,,0.00,1.000000,,2013-01-15 07:32:00,
2013-01-14 23:42:00,14.0,8.0,-100.00,West,269,2.0,4.0,75,0.00,,,0.00,1.000000,,2013-01-15 07:42:00,
2013-01-14 23:52:00,14.0,8.0,-100.00,West,269,2.0,4.0,75,0.00,,,0.00,1.000000,,2013-01-15 07:52:00,